Location: Badlands Tank
(34.7185°N, 107.0376°W)
Time: 03:15:16
(UTC+00:00)

Cosmos 2278 Rocket - Visible Passes

Search period start: 18 November 2025 00:00
Search period end: 28 November 2025 00:00
Orbit: 841 x 843 km, 71.0° (Epoch: 17 November)

Date Brightness Start Highest point End Pass type
(mag) Time Alt. Az. Time Alt. Az. Time Alt. Az.
18 Nov 2.3 00:35:14 10° SSW 00:40:52 81° WNW 00:46:34 10° NNE visible
18 Nov 5.0 02:24:51 10° WNW 02:25:48 10° NW 02:26:45 10° NW visible
19 Nov 2.3 00:20:20 10° SSW 00:25:59 85° WNW 00:31:40 10° NNE visible
19 Nov 4.9 02:09:20 10° WNW 02:10:52 11° NW 02:12:24 10° NW visible
20 Nov 4.9 01:53:59 10° WNW 01:55:56 12° NW 01:57:53 10° NNW visible
21 Nov 4.8 01:38:44 10° WNW 01:41:00 12° NW 01:43:16 10° NNW visible
22 Nov 4.8 01:23:31 10° W 01:26:04 13° NW 01:28:37 10° NNW visible
23 Nov 4.7 01:08:20 10° W 01:11:08 14° NW 01:13:56 10° NNW visible
24 Nov 4.7 00:53:11 10° W 00:56:12 14° NW 00:59:13 10° NNW visible
25 Nov 4.7 00:38:04 10° W 00:41:17 15° NW 00:44:30 10° NNW visible
26 Nov 4.6 00:22:56 10° W 00:26:21 16° NW 00:29:46 10° NNW visible
